Regional Weather Roundup
Issued by NWS Newport/Morehead, NC

Current Version | Previous Version | Graphics & Text | Print | Product List | Glossary On
Versions: 1 2 3 4 5 6 7 8 9 10 11 12 13 14 15 16 17 18 19 20 21 22 23 24 25 26 27 28 29 30 31 32 33 34 35 36 37 38 39 40 41 42 43 44 45 46 47 48 49 50
000 ASUS42 KMHX 232325 RWRMHX WEATHER ROUNDUP FOR EASTERN NORTH CAROLINA NATIONAL WEATHER SERVICE NEWPORT/MOREHEAD CITY NC 600 PM EST TUE JAN 23 2018 NOTE: "FAIR" INDICATES FEW OR NO CLOUDS BELOW 12,000 FEET WITH NO SIGNIFICANT WEATHER AND/OR OBSTRUCTIONS TO VISIBILITY NCZ015>017-031-032-045>047-102-103-240000- NORTH COAST CITY SKY/WX TMP DP RH WIND PRES REMARKS EDENTON FAIR 68 43 40 W12G20 29.74R ELIZABETH CITY FAIR 66 59 78 SW13 29.72R KITTY HAWK FAIR N/A N/A N/A SW7 29.72R MANTEO FAIR 52 51 97 SW13 29.74R $$ NCZ045>047-081-094-103-104-240000- CENTRAL COAST CITY SKY/WX TMP DP RH WIND PRES REMARKS FRISCO NOT AVBL $$ NCZ095-097-098-100-101-240000- SOUTHERN COAST CITY SKY/WX TMP DP RH WIND PRES REMARKS BEAUFORT FOG 53 53 100 SW12 29.81R VSB 1/2 CEDAR ISLAND NOT AVBL JACKSONVILLE FAIR 63 59 87 S8 29.79R PINEY ISLAND NOT AVBL WILMINGTON FAIR 60 55 83 SW9 29.82R $$ NCZ011>013-027>030-043-044-078>080-089-090>093-098-240000- COASTAL PLAIN CITY SKY/WX TMP DP RH WIND PRES REMARKS AHOSKIE FAIR 59 35 40 CALM 29.76R CLINTON FAIR 66 38 36 W8 29.82R ELIZABETHTOWN NOT AVBL GOLDSBORO FAIR 65 35 32 W20G28 29.77R GREENVILLE FAIR 66 36 32 W8 29.81R HAVELOCK NOT AVBL KENANSVILLE FAIR 66 43 42 W9G21 29.80R KINSTON FAIR 68 36 30 SW10G17 29.78R NEW BERN FAIR 67 46 47 S8G24 29.78R RICHLANDS FAIR 68 45 43 W10 29.80R ROCKY MOUNT FAIR 62 34 35 SW9 29.78R WASHINGTON FAIR 67 42 40 W13 29.77R WHITEVILLE FAIR 67 32 26 SW7 29.84R $$ AMZ130-135-150-152-154-156-158-170-250-252-270-ANZ085-086-088-633-658-670-240000- MARINE OBSERVATIONS STATION/POSITION TIME TEMP WIND PRES WAVE SWELL AIR SEA DIR/SP/G HT/PER HT/PER (UTC) (F) (DEG/KT/KT) (MB) (FT/S) (FT/S) CHESAPEAKE LIGHT NOT AVBL 64 E VA BEACH 2250 58 56 210/ 19/ 25 1005.9 10/ 9 7/ 9 DUCK 2300 56 42 210/ 7/ 11 1006.0 2 E DUCK 2300 42 N/A 3/ 8 OREGON INLET 2300 47 47 210/ 13/ 16 1007.3 13E OREGON INLT 2248 41 N/A 7/ 8 5/ 8 HATTERAS CG 2300 60 55 230/ 14/ 21 1008.1 DIAMOND BUOY 2310 68 70 230/ 23/ 29 1008.9 CAPE LOOKOUT 2300 220/ 15/ 21 1009.5 BEAUFORT LAB 2300 53 50 240/ 7/ 15 1009.4 30 SE NEW RVR IN 2308 63 58 220/ 17/ 23 1010.0 30 SE NEW RVR IN 2300 58 N/A 9/ 8 27 SE WRIGHTSVLE 2208 60 60 220/ 23/ 33 1010.1 5 SE WRIGHTSVLE 2308 52 48 230/ 14/ 19 1009.7 225 S CAPE HAT 2250 72 70 190/ 17/ 23 1015.2 7/ 7 2/17 41 SE CHARLESTON 2310 67 69 230/ 19/ 25 1013.0 $$

USA.gov is the U.S. government's official web portal to all federal, state and local government web resources and services.